Temp
46 46 46 45 44 44 43 41 41 41 40 40 40 39 39 39 38 37 37 37 37 36 35 35 34 34 34 33 32 32 32 32 31 30 30 30 30 29 30 29 28 29
45 45 45 44 43 43 43 43 42 42 41 41 41 40 39 38 38 37 37 36 36 36 35 35 34 34 33 33 32 32 31 31 31 31 30 29 30 29 29 28 28 27
44 43 44 44 44 43 43 42 41 41 41 41 40 39 39 38 37 37 37 36 36 35 35 35 34 34 33 32 32 32 32 31 30 30 29 29 29 28 28 28 27 27
43 43 44 44 43 43 42 41 40 40 40 39 39 40 38 37 37 36 36 36 36 35 35 34 34 33 33 32 32 32 32 31 31 29 29 28 28 28 27 27 27 26
42 42 43 43 43 41 40 40 40 40 40 40 39 38 38 37 36 36 36 36 36 35 34 34 33 33 33 32 32 32 31 31 30 29 29 28 28 28 28 27 26 26
40 41 42 42 42 41 40 40 40 39 39 38 39 38 38 37 37 36 36 35 36 35 34 33 33 33 32 32 31 32 32 31 30 29 29 28 27 27 28 27 26 26
39 38 39 40 39 40 40 40 39 39 39 40 37 37 38 37 37 36 36 36 35 35 35 34 33 33 33 32 32 32 32 31 30 29 29 29 27 26 27 26 26 26
39 38 38 38 39 40 39 39 39 39 39 39 38 38 37 38 37 37 36 36 35 35 35 34 34 34 33 33 32 32 31 31 30 29 29 28 27 26 26 26 26 26
38 38 38 37 38 39 39 40 40 39 39 40 39 38 37 38 37 37 36 36 36 35 35 34 34 34 34 33 33 32 32 31 30 29 29 28 27 27 26 26 26 26
38 38 38 38 38 39 40 40 41 41 40 40 40 39 37 37 37 37 36 36 35 35 35 35 34 34 34 33 33 33 32 31 30 29 29 29 28 27 27 26 26 25
39 39 39 39 40 41 40 41 41 42 42 40 39 38 37 37 37 37 36 36 35 35 35 35 34 34 33 33 33 33 33 32 30 29 29 29 28 28 28 26 26 25
40 40 40 41 41 41 41 41 42 42 42 40 39 39 38 37 37 37 36 36 36 36 36 35 35 34 33 33 33 32 32 31 30 29 29 28 28 27 27 27 26 26
39 40 41 41 41 41 42 42 42 41 41 40 39 39 38 37 37 36 36 36 36 36 36 35 34 34 33 33 32 32 31 31 29 29 28 28 28 27 27 27 27 26
39 40 40 42 42 42 41 41 41 41 40 40 38 38 38 37 36 36 36 36 36 36 35 35 34 33 33 32 32 31 31 30 30 29 28 28 27 27 27 26 26 26
40 40 40 40 39 40 40 39 39 40 39 39 38 37 38 38 37 36 35 34 35 35 35 35 34 34 33 32 31 31 31 30 30 29 28 27 26 26 26 25 25 25
38 38 38 38 38 38 38 39 38 38 37 37 37 37 36 36 36 35 35 35 34 35 35 35 34 34 34 35 34 31 30 30 29 28 27 27 26 25 24 25 25 25
37 37 37 36 37 37 36 37 37 37 36 36 36 35 34 34 34 34 34 35 34 34 34 34 34 34 35 36 36 35 31 29 27 26 26 26 25 24 23 23 23 23
35 35 34 35 35 35 35 35 35 34 34 34 34 33 33 33 33 34 34 35 34 34 34 34 34 35 36 36 37 36 34 29 28 26 25 26 25 24 24 23 23 22
34 33 33 33 33 33 33 33 32 33 33 33 33 33 33 32 32 33 33 34 34 33 33 33 33 35 36 37 37 37 36 32 28 27 26 25 25 24 24 23 22 22
33 32 32 32 32 32 31 31 31 31 33 33 32 32 32 32 32 32 33 32 33 33 33 33 33 34 36 36 36 36 36 33 27 26 25 25 25 25 24 24 23 22
32 31 31 31 31 30 30 30 31 31 31 31 32 32 32 32 32 31 31 31 31 31 31 31 32 34 36 36 36 37 36 34 27 25 25 24 25 25 25 24 24 23
31 30 30 30 30 30 29 30 31 31 31 32 31 32 32 32 32 31 30 30 30 30 30 29 30 34 35 36 36 37 36 31 26 24 23 23 22 24 24 24 24 24
31 29 28 29 29 29 29 29 30 30 31 30 29 30 30 30 30 30 30 30 29 29 28 29 28 32 35 36 36 37 35 28 24 23 22 21 21 22 23 23 24 25
31 30 28 28 27 27 28 29 30 29 29 29 29 29 29 29 29 28 28 28 28 27 28 27 26 30 34 35 36 36 33 26 24 23 21 20 20 22 23 23 25 27
31 30 30 29 28 28 28 26 26 27 28 25 25 26 27 27 25 26 25 25 25 26 28 27 25 27 34 35 36 36 33 25 23 22 20 19 20 20 22 23 24 26
32 31 30 29 28 28 27 26 25 23 23 23 22 22 22 22 22 23 23 22 23 23 24 26 24 24 29 34 35 36 34 25 23 22 20 20 20 21 21 21 23 24
MSLP
1007.69 1007.69 1007.73 1008.05 1008.21 1008.41 1008.85 1009.37 1009.73 1010.05 1010.37 1010.77 1010.97 1011.21 1011.61 1012.05 1012.97 1013.41 1013.73 1014.25 1014.57 1015.01 1015.49 1015.97 1016.49 1016.89 1017.17 1017.45 1017.69 1017.97 1018.21 1018.37 1018.69 1018.93 1019.13 1019.29 1019.37 1019.49 1019.73 1020.01 1020.21 1020.41
1007.61 1007.77 1007.81 1007.93 1008.13 1008.29 1008.33 1008.61 1008.97 1009.29 1009.65 1010.01 1010.25 1010.73 1011.33 1011.89 1012.25 1012.73 1013.21 1013.61 1014.13 1014.53 1014.93 1015.45 1015.93 1016.37 1016.85 1017.25 1017.53 1017.73 1018.01 1018.29 1018.49 1018.81 1019.05 1019.17 1019.25 1019.49 1019.61 1019.89 1020.13 1020.53
1008.01 1008.09 1008.09 1007.85 1007.57 1007.73 1008.09 1008.53 1008.85 1009.13 1009.41 1009.65 1010.21 1010.61 1010.93 1011.37 1011.93 1012.33 1012.77 1013.17 1013.57 1013.97 1014.41 1014.81 1015.29 1015.69 1016.17 1016.73 1017.17 1017.45 1017.65 1017.89 1018.13 1018.49 1018.81 1018.97 1019.25 1019.41 1019.57 1019.93 1020.25 1020.37
1007.93 1007.97 1008.05 1008.17 1008.33 1008.37 1008.49 1008.57 1008.65 1008.81 1009.05 1009.41 1009.41 1009.77 1010.41 1010.97 1011.45 1012.01 1012.41 1012.81 1013.17 1013.53 1013.93 1014.41 1014.69 1015.13 1015.53 1016.01 1016.57 1016.93 1017.09 1017.41 1017.65 1018.17 1018.53 1018.85 1019.09 1019.25 1019.57 1019.93 1020.21 1020.49
1007.81 1007.81 1007.85 1007.89 1008.09 1008.37 1008.65 1008.73 1008.69 1008.65 1008.65 1008.61 1009.25 1009.65 1009.89 1010.29 1010.85 1011.33 1011.77 1012.17 1012.57 1013.05 1013.53 1013.93 1014.41 1014.73 1015.09 1015.53 1015.97 1016.37 1016.77 1017.09 1017.53 1017.93 1018.21 1018.45 1018.77 1019.09 1019.41 1019.77 1020.05 1020.25
1007.37 1007.65 1007.85 1008.01 1008.17 1008.37 1008.33 1008.29 1008.49 1008.85 1009.01 1009.17 1008.89 1009.25 1009.49 1009.85 1010.17 1010.45 1010.93 1011.41 1011.77 1012.21 1012.77 1013.33 1013.81 1014.25 1014.65 1015.01 1015.49 1015.77 1016.17 1016.65 1017.09 1017.61 1017.93 1018.17 1018.61 1018.93 1019.25 1019.57 1019.81 1020.01
1007.05 1007.41 1007.61 1007.97 1008.25 1008.29 1008.41 1008.41 1008.53 1008.61 1008.77 1008.97 1009.45 1009.25 1009.21 1009.45 1009.53 1009.81 1010.21 1010.69 1011.25 1011.61 1012.01 1012.53 1013.09 1013.61 1014.09 1014.53 1014.89 1015.25 1015.65 1016.01 1016.61 1017.13 1017.41 1017.81 1018.29 1018.77 1019.01 1019.33 1019.53 1019.73
1007.33 1007.33 1007.41 1007.65 1007.73 1007.81 1007.85 1007.97 1008.25 1008.37 1008.49 1008.85 1008.93 1009.13 1009.57 1009.21 1009.29 1009.53 1009.85 1010.21 1010.65 1011.05 1011.49 1011.93 1012.45 1012.89 1013.41 1013.81 1014.17 1014.65 1015.05 1015.53 1016.01 1016.53 1016.89 1017.29 1017.85 1018.21 1018.53 1018.85 1019.21 1019.49
1007.49 1007.45 1007.45 1007.45 1007.45 1007.49 1007.53 1007.57 1007.73 1007.93 1008.21 1008.29 1008.25 1008.57 1009.09 1009.45 1009.45 1009.41 1009.53 1009.81 1010.05 1010.49 1010.97 1011.41 1011.77 1012.21 1012.65 1013.05 1013.37 1013.73 1014.13 1014.69 1015.17 1015.73 1016.13 1016.61 1017.09 1017.41 1017.93 1018.45 1018.93 1019.09
1007.05 1007.09 1007.21 1007.13 1007.13 1006.93 1006.93 1006.85 1007.09 1007.25 1007.45 1007.57 1007.65 1008.17 1008.45 1008.77 1009.41 1009.77 1009.65 1009.53 1009.57 1009.89 1010.33 1010.65 1011.09 1011.41 1011.85 1012.21 1012.49 1012.89 1013.41 1013.89 1014.53 1015.09 1015.49 1015.85 1016.33 1016.85 1017.45 1017.89 1018.13 1018.57
1006.69 1006.81 1006.81 1006.69 1006.61 1006.45 1006.29 1006.21 1006.29 1006.33 1006.57 1006.77 1007.25 1007.57 1007.69 1008.17 1008.49 1009.01 1009.65 1009.61 1009.29 1009.17 1009.33 1009.73 1010.17 1010.69 1011.21 1011.65 1012.01 1012.33 1012.73 1013.29 1013.89 1014.41 1014.81 1015.17 1015.61 1016.13 1016.69 1017.17 1017.57 1017.69
1006.49 1006.53 1006.41 1006.21 1006.01 1005.89 1005.81 1005.81 1005.81 1005.93 1006.13 1006.37 1006.65 1006.81 1007.21 1007.41 1007.57 1007.97 1008.37 1008.97 1009.17 1008.93 1008.81 1008.97 1009.53 1010.13 1010.45 1010.73 1011.13 1011.69 1012.21 1012.73 1013.29 1013.77 1014.17 1014.53 1015.01 1015.53 1016.05 1016.57 1016.97 1017.33
1006.37 1006.13 1005.85 1005.69 1005.53 1005.37 1005.29 1005.41 1005.49 1005.57 1005.77 1005.81 1006.13 1006.33 1006.45 1006.65 1006.93 1007.21 1007.45 1007.85 1008.33 1008.73 1008.61 1008.57 1008.89 1009.25 1009.69 1010.25 1010.73 1011.05 1011.45 1012.01 1012.69 1013.25 1013.65 1014.05 1014.37 1014.73 1015.21 1015.73 1016.13 1016.57
1006.05 1005.85 1005.69 1005.41 1005.17 1005.01 1004.97 1005.01 1005.17 1005.29 1005.37 1005.49 1005.81 1005.97 1006.01 1006.17 1006.33 1006.53 1006.77 1007.25 1007.49 1007.97 1008.33 1008.57 1008.69 1008.97 1009.33 1009.81 1010.29 1010.69 1011.05 1011.41 1011.89 1012.45 1012.97 1013.45 1013.89 1014.29 1014.65 1015.09 1015.41 1015.77
1005.93 1005.77 1005.61 1005.37 1005.13 1004.93 1004.81 1004.85 1004.89 1004.93 1005.05 1005.21 1005.37 1005.41 1005.53 1005.69 1006.05 1006.49 1006.85 1007.17 1007.37 1007.57 1007.85 1008.13 1008.21 1008.21 1008.37 1008.77 1009.37 1009.97 1010.37 1010.69 1011.05 1011.61 1012.17 1012.85 1013.53 1014.13 1014.53 1014.85 1015.13 1015.37
1006.33 1005.97 1005.69 1005.41 1005.25 1005.01 1004.73 1004.61 1004.61 1004.69 1004.77 1004.77 1004.73 1004.89 1005.17 1005.49 1005.89 1006.25 1006.57 1006.73 1007.05 1007.25 1007.41 1007.57 1007.53 1007.49 1007.61 1007.85 1008.17 1008.73 1009.45 1010.05 1010.61 1011.13 1011.65 1012.17 1012.69 1013.45 1014.17 1014.57 1014.73 1014.85
1006.57 1006.09 1005.73 1005.57 1005.29 1005.05 1004.77 1004.61 1004.49 1004.45 1004.49 1004.53 1004.61 1004.81 1004.89 1005.09 1005.41 1005.61 1005.73 1006.05 1006.57 1006.93 1007.13 1007.09 1007.09 1007.17 1007.45 1007.73 1007.89 1008.21 1008.81 1009.41 1009.97 1010.57 1011.21 1011.73 1012.17 1012.57 1013.21 1013.97 1014.57 1014.89
1006.93 1006.45 1006.01 1005.65 1005.41 1005.21 1004.93 1004.69 1004.57 1004.53 1004.49 1004.45 1004.57 1004.69 1004.81 1005.01 1004.93 1004.73 1005.09 1005.65 1006.09 1006.53 1006.69 1006.53 1006.57 1006.77 1007.17 1007.49 1007.81 1008.05 1008.33 1008.85 1009.45 1010.01 1010.65 1011.13 1011.65 1012.01 1012.33 1012.97 1013.61 1014.25
1007.17 1006.85 1006.45 1006.01 1005.65 1005.37 1005.21 1005.01 1004.77 1004.61 1004.49 1004.49 1004.41 1004.33 1004.65 1004.73 1004.61 1004.89 1004.81 1004.85 1005.29 1005.69 1005.93 1006.13 1006.25 1006.37 1006.65 1006.97 1007.37 1007.65 1007.97 1008.45 1009.05 1009.45 1010.01 1010.45 1010.97 1011.45 1011.73 1012.17 1012.85 1013.53
1007.25 1007.09 1006.73 1006.37 1006.05 1005.69 1005.37 1005.09 1004.93 1004.61 1004.29 1004.17 1004.21 1004.41 1004.49 1004.49 1004.57 1004.53 1004.57 1004.69 1004.77 1005.05 1005.45 1005.69 1005.81 1005.93 1006.09 1006.37 1006.69 1007.05 1007.37 1007.85 1008.53 1009.09 1009.57 1010.05 1010.45 1010.89 1011.29 1011.65 1012.05 1012.57
1007.21 1006.97 1006.69 1006.25 1006.01 1005.89 1005.57 1005.13 1004.77 1004.57 1004.41 1004.21 1004.13 1004.05 1004.05 1004.09 1004.09 1004.25 1004.21 1004.37 1004.61 1004.89 1005.17 1005.29 1005.29 1005.53 1005.69 1005.93 1006.25 1006.57 1006.89 1007.37 1008.21 1008.89 1009.41 1009.93 1010.41 1010.89 1011.21 1011.45 1011.73 1012.13
1007.33 1007.09 1006.73 1006.29 1005.93 1005.69 1005.53 1005.17 1004.77 1004.57 1004.41 1004.21 1004.17 1004.01 1003.97 1004.01 1004.05 1004.09 1004.17 1004.29 1004.41 1004.65 1004.81 1004.81 1005.01 1005.21 1005.37 1005.61 1005.89 1006.21 1006.61 1007.21 1007.97 1008.61 1009.13 1009.69 1010.21 1010.65 1011.13 1011.53 1011.81 1011.97
1007.29 1007.13 1006.81 1006.41 1006.09 1005.81 1005.45 1005.09 1004.73 1004.45 1004.33 1004.29 1004.25 1004.09 1003.97 1003.89 1003.77 1003.73 1003.81 1003.97 1004.17 1004.37 1004.45 1004.49 1004.81 1004.89 1004.93 1005.17 1005.41 1005.81 1006.29 1007.01 1007.81 1008.49 1008.97 1009.37 1009.73 1010.17 1010.61 1011.05 1011.37 1011.65
1007.13 1007.01 1006.81 1006.45 1006.29 1006.09 1005.73 1005.37 1005.01 1004.65 1004.33 1004.17 1004.13 1003.93 1003.93 1003.81 1003.69 1003.73 1003.85 1003.97 1004.05 1004.09 1004.13 1004.29 1004.57 1004.69 1004.61 1004.73 1004.97 1005.21 1005.61 1006.57 1007.41 1008.01 1008.61 1009.05 1009.45 1009.85 1010.29 1010.69 1010.97 1011.21
1006.97 1006.73 1006.61 1006.49 1006.37 1006.09 1005.93 1005.69 1005.33 1005.01 1004.57 1004.49 1004.37 1004.21 1003.97 1003.89 1003.97 1003.93 1003.93 1004.01 1004.05 1004.05 1004.13 1004.21 1004.45 1004.65 1004.41 1004.41 1004.53 1004.81 1005.37 1006.41 1007.17 1007.77 1008.37 1008.77 1009.13 1009.53 1009.93 1010.33 1010.69 1010.93
1006.81 1006.53 1006.33 1006.37 1006.25 1006.05 1005.85 1005.53 1005.21 1004.97 1004.65 1004.53 1004.45 1004.37 1004.17 1004.01 1003.97 1003.93 1003.89 1003.89 1004.01 1004.09 1004.09 1004.05 1004.33 1004.53 1004.37 1004.21 1004.29 1004.53 1005.01 1006.09 1006.81 1007.37 1007.77 1008.21 1008.61 1008.81 1009.29 1009.85 1010.21 1010.53
Wind_Speed
11 11 13 11 12 11 11 12 11 12 12 12 13 13 13 12 10 14 14 12 13 13 12 11 10 10 9 9 10 9 9 10 8 7 8 8 7 8 9 8 7 8
13 11 10 10 9 9 11 12 13 13 13 13 12 11 10 10 12 13 14 14 12 13 12 12 12 11 10 10 10 10 9 8 10 6 9 9 8 7 8 8 8 6
9 10 11 12 13 12 11 9 9 10 10 11 9 9 10 10 11 12 12 13 13 13 13 13 12 12 12 11 10 10 10 10 11 8 8 10 7 8 7 7 6 8
10 10 10 10 8 8 8 8 9 10 10 10 13 11 10 9 11 12 13 14 13 13 12 12 13 12 12 12 11 10 11 10 9 8 9 7 7 7 7 7 6 6
10 11 10 10 9 6 6 9 10 11 12 12 8 10 11 12 12 13 13 13 13 13 12 13 12 12 12 12 12 11 10 10 8 9 9 9 8 8 7 8 9 9
8 9 9 9 7 7 8 10 11 9 9 8 12 9 11 12 13 14 15 15 14 14 14 13 13 12 13 12 12 11 11 10 9 10 10 10 8 7 7 8 9 10
8 7 9 7 7 8 9 9 8 9 9 9 4 11 11 13 14 15 15 15 14 14 15 14 14 14 12 12 12 12 11 11 10 11 12 9 8 9 7 8 9 9
9 6 7 7 9 10 11 10 9 10 9 7 12 10 9 13 13 13 13 14 14 15 14 14 14 15 14 13 14 14 13 10 11 13 12 11 10 11 10 9 9 9
7 8 7 8 10 10 11 12 10 10 8 12 12 10 10 10 11 12 13 14 14 14 14 14 15 15 14 14 15 16 16 14 13 14 14 13 13 13 12 10 10 10
9 8 8 10 11 12 13 13 12 11 11 13 12 9 11 10 9 11 11 14 15 14 15 15 16 15 15 16 16 16 16 16 14 14 13 13 13 13 12 12 13 11
10 9 10 11 13 12 15 14 14 14 12 13 11 11 11 10 11 11 12 13 14 16 17 17 16 16 16 15 15 15 15 14 15 14 14 14 14 13 12 13 13 13
10 9 11 13 14 14 15 14 14 13 12 11 12 13 11 12 14 13 13 14 14 15 16 16 15 15 17 17 17 15 15 14 14 14 14 14 13 13 13 13 13 12
9 11 12 12 13 14 13 12 12 12 12 13 11 13 14 14 13 14 14 15 16 14 15 15 16 16 16 15 15 15 15 15 14 14 14 13 13 14 14 13 13 13
9 9 10 12 12 12 12 12 11 11 12 12 10 13 14 14 15 16 14 13 15 14 14 12 14 14 14 14 14 15 15 16 16 15 15 14 13 13 13 14 14 13
13 10 9 10 11 11 11 11 11 12 11 11 11 13 12 13 12 12 12 13 12 13 14 13 14 15 14 15 16 16 16 16 17 17 16 15 13 13 12 13 12 12
12 11 11 10 10 10 11 11 11 11 11 11 13 13 12 10 10 11 13 14 14 14 14 13 14 12 13 20 19 16 16 14 13 14 15 15 15 14 13 13 13 12
13 12 11 11 11 10 9 9 11 10 10 11 11 10 11 11 11 13 15 14 14 14 14 13 13 11 16 23 24 24 17 15 14 14 13 14 14 15 15 14 12 11
13 13 13 12 10 11 10 10 9 8 10 10 10 10 10 9 12 15 13 12 12 13 14 14 13 12 20 23 25 25 20 15 13 13 13 14 14 15 14 14 14 12
12 13 12 12 11 10 9 8 8 8 9 9 11 11 8 11 12 11 13 13 13 15 15 14 13 15 22 24 25 25 25 19 12 13 14 14 15 15 15 15 13 13
11 11 11 12 11 11 9 8 8 10 10 9 8 6 9 11 11 13 12 12 14 15 14 13 14 15 24 25 26 27 26 21 13 14 13 14 15 15 13 14 15 14
12 12 12 12 11 9 9 9 9 9 9 8 8 10 11 12 12 13 13 12 12 12 12 12 12 17 23 25 25 26 26 22 12 12 11 11 11 12 13 13 14 13
11 12 12 12 12 11 10 10 9 9 9 8 7 8 8 7 8 8 11 12 12 12 13 13 10 18 22 24 26 25 26 15 12 12 12 11 11 12 11 10 11 12
11 11 12 11 11 11 12 11 11 10 9 6 7 8 8 9 10 10 10 11 12 12 13 12 9 16 23 24 26 27 20 12 12 11 11 12 12 11 12 12 12 11
11 11 11 11 10 11 11 11 9 8 8 6 8 9 9 10 9 9 8 9 11 12 13 12 10 14 24 24 26 28 19 14 12 13 12 11 10 11 10 10 12 19
11 11 11 11 11 11 10 10 10 9 8 5 7 7 9 7 6 7 7 7 8 10 9 12 9 12 22 24 26 27 19 12 12 11 12 12 11 10 9 9 11 15
11 11 11 11 12 12 10 9 8 8 7 7 7 7 8 7 6 7 8 8 7 8 9 10 10 9 15 24 25 28 24 13 12 13 13 13 12 12 12 10 11 10
Wind_Direction
206 204 205 201 204 200 190 190 192 191 194 193 197 199 198 196 178 188 194 190 193 193 191 191 190 192 193 188 187 185 189 195 193 189 192 187 192 180 182 182 178 184
215 212 211 207 207 203 202 194 193 194 195 196 200 192 192 182 190 185 190 192 190 195 190 188 189 189 188 189 187 187 189 189 194 183 188 192 194 181 188 182 177 166
221 220 219 216 212 206 201 195 194 198 196 199 190 189 190 187 183 190 190 190 191 192 192 190 187 188 187 187 186 191 192 191 195 185 186 194 183 186 188 173 174 178
225 224 224 229 231 225 212 199 198 196 196 190 198 190 180 182 182 184 188 190 193 193 193 189 191 187 186 186 184 193 194 195 193 174 185 187 189 183 177 172 171 171
227 227 225 225 224 217 206 214 211 207 203 203 181 183 184 181 182 185 187 191 191 193 188 191 189 190 186 186 186 191 191 193 183 177 186 189 187 178 177 169 175 177
228 229 233 233 230 222 217 213 213 213 214 202 203 188 192 181 186 188 188 189 192 190 189 187 189 189 186 187 185 193 189 189 185 179 187 191 184 180 171 178 176 181
229 222 231 226 231 226 230 229 224 216 213 215 194 205 189 190 193 191 189 190 189 191 190 188 187 187 187 186 188 192 191 189 180 184 188 190 175 181 180 179 184 183
245 238 229 219 226 224 226 224 218 217 214 199 210 213 199 205 196 192 191 189 189 192 191 189 189 190 186 186 189 190 191 186 185 184 189 186 178 186 185 183 180 180
248 243 234 227 227 227 229 226 222 220 207 212 217 206 202 208 206 198 193 191 192 190 190 191 191 191 189 188 192 191 190 190 187 186 188 186 187 191 184 177 179 187
243 239 232 231 229 228 228 224 220 219 210 216 215 201 205 205 202 207 202 195 194 191 191 193 193 192 190 193 192 190 191 191 186 188 190 191 190 187 183 183 187 182
252 243 239 235 234 233 231 228 222 222 214 216 208 209 206 196 202 198 203 205 200 196 194 194 195 191 191 192 194 193 193 189 188 188 190 191 190 188 185 185 187 191
256 250 245 242 239 238 235 232 229 226 222 218 209 212 203 202 201 198 199 203 209 205 199 196 191 191 194 194 191 189 190 190 188 189 191 190 188 187 186 187 189 187
262 254 247 245 242 240 239 237 234 230 223 222 210 212 208 206 203 202 202 202 204 205 206 197 193 194 194 193 191 190 188 187 187 190 191 190 191 187 185 187 187 186
281 266 260 255 253 249 244 240 236 232 227 224 212 215 214 210 206 204 205 202 205 203 206 200 197 196 194 192 191 190 188 190 189 190 190 191 190 189 186 187 188 187
312 298 280 268 259 257 252 244 237 233 230 223 216 218 215 215 210 207 206 208 208 205 202 199 200 200 196 191 189 190 192 192 190 190 188 187 186 188 189 188 188 188
322 311 298 285 277 263 254 247 241 235 229 225 222 218 217 212 206 206 208 209 207 208 205 203 207 206 196 189 186 187 189 192 191 190 187 186 184 184 188 191 192 187
337 328 318 303 286 275 268 257 246 239 233 231 229 220 215 210 203 207 209 208 208 207 207 209 209 207 195 194 192 187 183 186 187 188 189 189 189 185 186 185 188 179
340 334 327 315 303 287 275 264 257 247 239 234 229 224 219 209 212 213 209 206 206 208 211 212 211 200 196 197 196 192 186 185 186 186 186 191 191 191 188 182 182 178
339 338 330 322 312 299 288 279 264 251 244 237 229 224 214 215 220 212 213 209 204 208 213 212 213 199 198 196 195 194 189 182 190 188 187 193 191 192 189 184 179 178
340 337 331 323 315 306 294 279 265 254 245 237 236 223 218 222 219 216 215 210 210 210 212 212 211 199 197 196 195 194 189 184 190 187 192 194 194 192 189 186 182 178
339 336 331 326 320 309 295 281 266 264 258 244 229 222 220 219 216 217 216 213 212 210 213 213 212 198 198 196 194 193 191 184 186 186 189 194 194 193 193 189 185 182
335 330 327 324 322 317 306 290 278 264 260 251 240 238 234 232 232 224 220 216 213 209 212 215 207 197 198 197 195 194 189 183 184 184 186 187 189 190 190 190 188 185
330 325 322 320 319 317 309 300 291 278 265 254 245 240 232 226 226 218 217 215 211 210 211 213 204 197 197 196 195 192 186 182 179 181 186 187 189 186 187 187 186 183
324 324 319 317 315 311 303 298 290 282 273 252 239 239 234 232 224 225 222 217 214 212 209 208 204 198 198 196 194 193 183 177 178 183 187 188 187 184 183 186 188 187
318 318 317 313 309 302 296 291 285 274 267 246 242 242 241 234 222 225 223 218 220 215 207 207 202 200 200 199 196 194 186 172 175 183 183 189 183 182 183 181 186 190
314 314 312 311 306 299 292 280 275 276 261 243 242 233 238 223 217 219 218 219 210 210 211 207 199 199 205 202 200 200 191 170 179 182 190 186 183 182 177 182 184 185